Find Yunyao-1 27

NORAD ID: 65490 Int'l Des: NNA 2025-197 Owner: YYAO Country: CN operational
LEOCIRCULARRETROGRADESSO

Live-Position

3D-Globus wird geladen...

Über Yunyao-1 27

Beschreibung wird geladen...

Nächste Überflüge

Passes for default location (London). Set your location on the main map for personalized predictions.

Höhenverlauf

Loading altitude history...

Zweizeiliger Elementsatz

1 65490U 25197C 26106.52299208 .00003006 00000-0 12682-3 0 9991
2 65490 97.4109 294.2353 0013606 222.5952 137.4231 15.23990963 33922
Epoch: 16. Apr. 2026 • Age: 12 hours

Aktueller Status

Höhe 510.9 km
Geschwindigkeit 7.61 km/s
Subsatellitenpunkt -67.00°S, 118.19°W
Startdatum 5. Sept. 2025
Alter 0.6 years
Typ other

Technische Details

Klassifizierung Payload
Masse 50.00 kg
Trockenmasse 50.00 kg
Gesamtmasse 50.00 kg
Länge 0.30 m
Durchmesser 1.80 m
Spannweite 1.00 m
Form Box
Hersteller CTYK
Bus-Typ TY170
Phasenstatus In Orbit
Besitzer/Staat YYAO/CN

Most Searched